Content
SEND FEEDBACK

Daily
Averages
Monthly
Summary
United Kingdom

LONDON, ENGLAND


Home > Europe > United Kingdom > England
Elevation: 203 feet     Latitude: 51 09N     Longitude: 000 11W

WEATHER
 
SELECT A DAY
Number of Records: 294,488;   Date Range: 7/1/96 - 9/16/14
 
SHARE

PRINT THIS DATA

[ ← Previous Day ]
WEATHER ALMANAC - FEBRUARY 5, 2013
[ Next Day → ]
[ °C ]   °F
Weather ElementAverageHighLow
Temperature39.5 °F42.8 °F (12:50 am)35.6 °F (6:20 am)
Dewpoint30.4 °F37.4 °F (1:20 am)24.8 °F (1:50 pm)
Humidity70.4 %87 % (3:50 am)53 % (1:50 pm)
Barometer29.53 in29.71 in (12:50 am)29.36 in (9:20 pm)
Wind Speed15.9 mph23 mph (1:50 am)
Wind Gust35.7 mph (1:50 am)
Weather ElementAverage
Visibility6.1 mi
Wind DirectionWSW (255.5 °)

Weather ElementTotal
Precipitation---
Heating Degree Days25.8 (Base 65)
Averaged from 47 records on February 5, 2013
WEATHER CONDITIONS BREAKOUT
WIND DIRECTION BREAKOUT
WEATHER BY HOUR - FEBRUARY 5, 2013
[ °C ]   °F
Local TimeTemperatureDewpointHumidityBarometerVisibilityWind DirectionWind SpeedGust SpeedPrecipitationEventsConditions
12:50 AM42.8 °F35.6 °F76 %29.71 in6.2 miSW (230°)17.3 mphPartly Cloudy
1:20 AM42.8 °F37.4 °F81 %29.71 in6.2 miWSW (240°)16.1 mphRainLight Rain
1:50 AM42.8 °F35.6 °F76 %29.68 in6.2 miWSW (250°)23.0 mph35.7 mphRainLight Rain
2:20 AM39.2 °F33.8 °F81 %29.71 in3.1 miWest (270°)21.9 mphRainLight Rain
2:50 AM39.2 °F33.8 °F81 %29.68 in6.2 miWest (260°)17.3 mphRainLight Rain
3:20 AM39.2 °F33.8 °F81 %29.65 in6.2 miWSW (250°)13.8 mphScattered Clouds
3:50 AM37.4 °F33.8 °F87 %29.65 in6.2 miWSW (250°)11.5 mphPartly Cloudy
4:20 AM37.4 °F32.0 °F81 %29.65 in6.2 miWSW (250°)12.7 mphPartly Cloudy
4:50 AM37.4 °F30.2 °F75 %29.65 inWSW (250°)13.8 mphClear
5:20 AM37.4 °F28.4 °F70 %29.65 inWest (260°)15.0 mphClear
5:50 AM37.4 °F28.4 °F70 %29.65 inWSW (250°)17.3 mphClear
6:20 AM35.6 °F26.6 °F70 %29.62 inWest (260°)15.0 mphClear
6:50 AM35.6 °F26.6 °F70 %29.62 inWest (260°)16.1 mphClear
7:20 AM35.6 °F26.6 °F70 %29.62 inWSW (250°)12.7 mphClear
7:50 AM35.6 °F26.6 °F70 %29.62 inWSW (240°)9.2 mphClear
8:20 AM35.6 °F28.4 °F75 %29.62 inWSW (240°)10.4 mphClear
8:50 AM35.6 °F30.2 °F81 %29.62 in6.2 miWSW (240°)9.2 mphPartly Cloudy
9:20 AM35.6 °F30.2 °F81 %29.59 in6.2 miWSW (250°)11.5 mphPartly Cloudy
9:50 AM37.4 °F30.2 °F75 %29.59 in6.2 miWSW (250°)10.4 mphPartly Cloudy
10:20 AM39.2 °F30.2 °F70 %29.59 in6.2 miWest (260°)13.8 mphScattered Clouds
10:50 AM39.2 °F30.2 °F70 %29.59 in6.2 miWest (260°)20.7 mphScattered Clouds
11:20 AM39.2 °F30.2 °F70 %29.56 in6.2 miWest (270°)16.1 mphMostly Cloudy
11:50 AM39.2 °F28.4 °F65 %29.56 in6.2 miWest (270°)16.1 mphScattered Clouds
12:20 PM41.0 °F28.4 °F61 %29.53 in6.2 miWest (260°)17.3 mphPartly Cloudy
12:50 PM41.0 °F28.4 °F61 %29.53 in6.2 miWest (260°)19.6 mphPartly Cloudy
1:20 PM41.0 °F26.6 °F57 %29.53 in6.2 miWest (260°)20.7 mphPartly Cloudy
1:50 PM41.0 °F24.8 °F53 %29.53 in6.2 miWest (270°)19.6 mphPartly Cloudy
2:20 PM41.0 °F24.8 °F53 %29.50 in6.2 miWest (280°)20.7 mphScattered Clouds
2:50 PM41.0 °F24.8 °F53 %29.50 in6.2 miWest (270°)17.3 mphScattered Clouds
3:20 PM41.0 °F24.8 °F53 %29.50 in6.2 miWest (270°)20.7 mphPartly Cloudy
3:50 PM41.0 °F26.6 °F57 %29.47 in6.2 miWest (260°)18.4 mphPartly Cloudy
4:20 PM41.0 °F24.8 °F53 %29.47 in6.2 miWest (260°)17.3 mphPartly Cloudy
4:50 PM39.2 °F26.6 °F61 %29.44 in6.2 miWSW (250°)13.8 mphPartly Cloudy
5:20 PM39.2 °F26.6 °F61 %29.44 inWSW (250°)12.7 mphClear
5:50 PM39.2 °F26.6 °F61 %29.44 inWSW (240°)10.4 mphClear
6:20 PM41.0 °F28.4 °F61 %29.42 in6.2 miSW (230°)13.8 mphScattered Clouds
6:50 PM39.2 °F30.2 °F70 %29.42 in6.2 miWSW (240°)15.0 mphRainLight Rain
7:20 PM39.2 °F32.0 °F75 %29.42 in6.2 miWSW (240°)15.0 mphMostly Cloudy
7:50 PM41.0 °F33.8 °F76 %29.39 in6.2 miWSW (250°)18.4 mphMostly Cloudy
8:20 PM41.0 °F33.8 °F76 %29.39 in6.2 miWSW (240°)15.0 mphMostly Cloudy
8:50 PM41.0 °F33.8 °F76 %29.39 in6.2 miWSW (240°)13.8 mphMostly Cloudy
9:20 PM41.0 °F35.6 °F81 %29.36 in6.2 miWSW (240°)12.7 mphMostly Cloudy
9:50 PM41.0 °F35.6 °F81 %29.36 in6.2 miWest (260°)16.1 mphMostly Cloudy
10:20 PM42.8 °F35.6 °F76 %29.36 in6.2 miWest (270°)19.6 mphMostly Cloudy
10:50 PM42.8 °F35.6 °F76 %29.36 in6.2 miWest (280°)19.6 mphScattered Clouds
11:20 PM42.8 °F35.6 °F76 %29.36 in6.2 miWNW (290°)19.6 mphScattered Clouds
11:50 PM42.8 °F35.6 °F76 %29.36 in6.2 miWNW (290°)17.3 mphScattered Clouds
Hourly data recorded from EGKK, located miles away from London, England







STORIES FROM OUR PARTNERS